User: anonymous   Login
Location: Brno
(49.2000°N, 16.6330°E)
Time: 05:29:59
(UTC+02:00)
Language:

CARTOSAT-1 - Orbit

View from above orbital plane
View from above orbital plane
View from above satellite
View from above satellite

Ground track
Ground track

The orbit data is extracted from the following two-line orbital elements,

1 28649U 05017A   15208.84790767  .00000286  00000-0  41399-4 0  9992
2 28649 097.9334 280.0229 0003386 119.1397 241.0156 14.83409628553636
Epoch (UTC): 27 July 2015 20:20:59
Eccentricity: 0.0003386
inclination: 97.9334°
perigee height: 616 km
apogee height: 621 km
right ascension of ascending node: 280.0229°
argument of perigee: 119.1397°
revolutions per day: 14.83409628
mean anomaly at epoch: 241.0156°
orbit number at epoch: 55363

The dashed part of the orbit path shows where the satellite is in the earth's shadow,  

DLR